Location: Muenchen
(48.1800°N, 11.5800°E)
Time: 06:25:04
(UTC+01:00)

Sich 1 Rocket - Visible Passes

Search period start: 26 February 2017 00:00
Search period end: 08 March 2017 00:00
Orbit: 618 x 652 km, 82.5° (Epoch: 25 February)

Date Brightness Start Highest point End Pass type
(mag) Time Alt. Az. Time Alt. Az. Time Alt. Az.
26 Feb 6.6 02:55:23 10° NNE 02:56:35 13° NE 02:56:35 13° NE visible
26 Feb 5.1 04:32:00 10° NNW 04:33:59 26° NNW 04:33:59 26° NNW visible
26 Feb 6.6 18:49:16 10° WSW 18:52:20 18° WNW 18:55:27 10° NNW visible
27 Feb 6.3 03:16:41 10° NNE 03:17:54 16° NNE 03:17:54 16° NNE visible
27 Feb 5.7 04:54:32 10° NNW 04:55:20 14° NNW 04:55:20 14° NNW visible
28 Feb 6.1 03:38:35 10° N 03:39:29 15° N 03:39:29 15° N visible
01 Mar 6.1 04:00:47 10° N 04:01:14 13° N 04:01:14 13° N visible
02 Mar 6.9 18:42:14 10° W 18:43:47 11° WNW 18:45:20 10° NW visible
03 Mar 6.6 03:07:28 10° N 03:07:31 10° N 03:07:31 10° N visible
